Regional Weather Roundup
Issued by NWS

Home | Current Version | Previous Version | Text Only | Print | Product List | Glossary Off
Versions: 1 2 3 4 5 6 7 8 9 10 11 12 13 14 15 16 17 18 19 20 21 22 23 24 25 26 27 28 29 30 31 32 33 34 35 36 37 38 39 40 41 42 43 44 45 46 47 48 49 50

000
ASUS43 KFSD 230302
RWRSD

WEATHER ROUNDUP FOR SOUTH DAKOTA
NATIONAL WEATHER SERVICE SIOUX FALLS SD
1000 PM CDT SAT JUL 22 2017

NOTE: "FAIR" INDICATES FEW OR NO CLOUDS BELOW 12,000 FEET WITH NO
SIGNIFICANT WEATHER AND/OR OBSTRUCTIONS TO VISIBILITY.


SDZ001>005-009-010-012>017-230400-
NORTHWEST AND NORTH CENTRAL SOUTH DAKOTA

CITY           SKY/WX    TMP DP  RH WIND       PRES   REMARKS
BUFFALO          N/A     76  43  30 N14       30.01R
FAITH            N/A     74  43  32 N9        30.03R
MOBRIDGE       CLEAR     72  56  57 NE8       29.95R
$$

SDZ012>016-024>037-041>051-057-063-072>074-230400-
SOUTHWEST AND SOUTH CENTRAL SOUTH DAKOTA

CITY           SKY/WX    TMP DP  RH WIND       PRES   REMARKS
RAPID CTY ARPT CLEAR     71  45  39 NE8       30.06R
PIERRE         CLEAR     75  44  33 NE10      29.94R
CUSTER         CLEAR     72  37  28 E10       30.22R
PHILIP         CLEAR     78  39  24 N9        29.98R
PINE RIDGE     CLEAR     72  60  66 E5        30.06R
SPEARFISH      FAIR      70  45  40 S8        30.13R
WINNER         FAIR      80  54  40 NE9       29.95R
$$

SDZ004>011-016>023-039-040-230400-
NORTHEAST SOUTH DAKOTA

CITY           SKY/WX    TMP DP  RH WIND       PRES   REMARKS
ABERDEEN       CLEAR     73  55  53 NW10      29.92R
WATERTOWN      CLEAR     69  61  75 SW7       29.89R
BROOKINGS      CLEAR     75  63  66 W3        29.91S
SISSETON         N/A     69  64  84 NW9       29.88R
$$

SDZ017-020-022-023-036>040-048>070-230400-
SOUTHEAST SOUTH DAKOTA

CITY           SKY/WX    TMP DP  RH WIND       PRES   REMARKS
SIOUX FALLS    PTCLDY    75  66  73 CALM      29.91R
HURON          CLEAR     74  66  76 W3        29.90R
CHAMBERLAIN    CLEAR     81  60  48 NE3       29.94R
MITCHELL       CLEAR     82  64  54 SW3       29.91R
YANKTON        CLEAR     77  70  79 CALM      29.93R
$$

ABBREVIATIONS USED IN REMARKS
   TC - TEMPERATURE IN CELSIUS
  WCI - WIND CHILL INDEX
   HX - HEAT INDEX
  VSB - VISIBILITY




USA.gov is the U.S. government's official web portal to all federal, state and local government web resources and services.